星链-32776 (STARLINK-32776)

导读

STARLINK-32776是美国SpaceX星链星座的卫星,于2025年2月18日发射,归属星链互联网卫星星座项目。星链旨在打造低轨卫星互联网星座,为全球提供高速宽带服务,该卫星承担卫星通信网络部署任务,延续星链星座对全球网络覆盖的拓展布局,进一步完善低轨卫星通信基础设施。

基本信息
目录编号:
63032
目录名称:
STARLINK-32776
国际标识:
2025-034D
轨道中心:
EARTH
卫星名称:
星链-32776
卫星全名:
星链-32776 (STARLINK-32776)
卫星状态:
在轨 (已飞行564 天)
发射日期:
2025-02-18 UTC
国别 :
美国 (US)
星等 :
--
轨道信息
数据来源 国际轨道数据 AOE轨道数据
星历时间 2026-09-05T11:03:11+0800
5小时前
查看轨道信息
2026-09-04T23:00:00+0800
17小时前
查看轨道信息
半长轴 6840.838km 6840.905km
偏心率 0.0001288 0.0001184
轨道倾角 53.158° 53.158°
近地点辐角 92.407° 98.000°
升交点赤经 141.525° 143.873°
平近点角 267.708° 6.454°
近地点 461.819km 461.958km
远地点 463.583km 463.578km
周期 93.848分钟 93.849分钟
每日圈数 15.344008 15.343785
详细信息
固有亮度:
5
最大亮度:
2.5
卫星平台:
Starlink V1.0
覆盖范围:
全球
运营商:
太空探索技术公司
运营商所在国:
美国
制造商(研发单位):
太空探索技术公司
制造商所在国:
美国
使用方式:
暂无
卫星简介
Starlink 计划是 SpaceX 推出的全球卫星互联网项目,通过发射低轨道卫星,为全球尤其是偏远地区提供高速、低延迟的互联网服务。自 2019 年起,Starlink 已部署数千颗卫星,旨在缩小全球数字鸿沟,推动互联网普及。该项目还为军事、航空等行业提供通信支持,带来广泛经济效益。
2D轨道图
3D轨道图
轨道高度分析图
轨道倾角分析图
轨道综合分析图
查看轨道综合分析图
交会数据列表
事件ID 空间交会对象 最接近时刻(TCA) 交会距离 交会风险概率(CRP) 交会风险指数(CRI) 操作
CDM_260906-090205-926606-303221
2026-09-06T
09:02:19+0000
1.288 km
极远距离
6.933061E-6 低风险 0.52
CDM_260906-020005-926606-303221
2026-09-06T
02:00:13+0000
1.431 km
极远距离
4.880029E-6 低风险 0.49
CDM_260907-180805-407006-303221
2026-09-07T
18:08:36+0000
2.484 km
极远距离
1.400705E-6 低风险 0.38